Date String (YYYY-MM-DD hh:mm:ss) UTC,Instrument flags,Ambient pressure (hPa),Sample flow (lpm),Bypass flow (lpm),Sample temperature (°C),Ambient temperature (°C),ASC tube jacket temperature (°C),LED temperature (°C),Box temperature (°C),Sample RH (%),Span deviation,Mass concentration (μg/m³),Mass concentration (μg/m³),Mass concentration (μg/m³)
DateTimeUTC,F1_M11,P_M11,Q1_M11,Q2_M11,T1_M11,T2_M11,T3_M11,T4_M11,T5_M11,U1_M11,ZSPAN_M11,X2_M11,X0_M11,X1_M11
2022-07-12 21:00:00,,0828.0,5.00,0.00,29.2,27.4,00.0,37.9,31.0,29.9,0000.0,0010.07,0028.25,0008.32
2022-07-12 21:01:00,,0828.0,4.99,0.00,29.2,27.6,00.0,37.9,31.1,30.0,0000.0,0010.17,0028.02,0008.37
2022-07-12 21:02:00,,0828.0,5.01,0.00,29.2,27.8,00.0,37.9,31.1,30.0,0000.0,0010.26,0028.45,0008.42
2022-07-12 21:03:00,,0828.0,5.00,0.00,29.3,28.0,00.0,37.9,31.2,30.3,0000.0,0010.32,0027.61,0008.47
2022-07-12 21:04:00,,0827.9,5.00,0.00,29.3,28.2,00.0,38.0,31.3,30.5,0000.0,0010.28,0027.04,0008.50
2022-07-12 21:05:00,,0828.0,5.00,0.00,29.4,28.3,00.0,38.0,31.4,30.7,0000.0,0010.29,0027.39,0008.57
2022-07-12 21:06:00,,0827.9,4.99,0.00,29.4,27.9,00.0,37.9,31.3,30.6,0000.0,0010.34,0026.58,0008.60
2022-07-12 21:07:00,,0828.0,5.00,0.00,29.3,27.3,00.0,37.9,31.2,30.9,0000.0,0010.36,0028.13,0008.61
2022-07-12 21:08:00,,0827.9,5.00,0.00,29.3,27.1,00.0,37.9,31.1,30.4,0000.0,0010.42,0028.36,0008.63
2022-07-12 21:09:00,,0828.0,5.00,0.00,29.2,27.2,00.0,37.9,31.0,30.3,0000.0,0010.42,0027.78,0008.64
2022-07-12 21:10:00,,0827.9,5.00,0.00,29.2,27.3,00.0,37.9,31.0,30.1,0000.0,0010.40,0027.51,0008.61
2022-07-12 21:11:00,,0828.0,5.01,0.00,29.2,27.5,00.0,37.9,31.1,29.9,0000.0,0010.35,0028.87,0008.59
2022-07-12 21:12:00,,0827.9,5.00,0.00,29.3,27.7,00.0,37.9,31.1,29.9,0000.0,0010.35,0031.07,0008.58
2022-07-12 21:13:00,,0828.0,5.00,0.00,29.3,27.9,00.0,38.0,31.2,30.0,0000.0,0010.30,0030.47,0008.57
2022-07-12 21:14:00,,0828.0,5.00,0.00,29.3,28.1,00.0,38.0,31.3,30.1,0000.0,0010.28,0029.83,0008.54
2022-07-12 21:15:00,,0827.9,5.00,0.00,29.4,28.1,00.0,38.0,31.4,29.3,0000.0,0010.28,0030.10,0008.52
2022-07-12 21:16:00,,0828.0,5.00,0.00,29.3,27.6,00.0,37.9,31.3,28.9,0000.0,0010.26,0029.65,0008.48
2022-07-12 21:17:00,,0827.9,5.02,0.00,29.3,27.2,00.0,37.9,31.2,27.6,0000.0,0010.16,0029.57,0008.42
2022-07-12 21:18:00,,0827.9,4.99,0.00,29.3,27.1,00.0,37.9,31.1,27.7,0000.0,0010.05,0028.74,0008.36
2022-07-12 21:19:00,,0827.9,5.00,0.00,29.2,27.2,00.0,37.9,31.0,27.4,0000.0,0009.99,0027.88,0008.28
2022-07-12 21:20:00,,0827.9,5.00,0.00,29.2,27.4,00.0,37.9,31.0,29.2,0000.0,0009.98,0027.87,0008.22
2022-07-12 21:21:00,,0827.9,5.01,0.00,29.2,27.6,00.0,37.9,31.1,29.3,0000.0,0009.93,0028.54,0008.17
2022-07-12 21:22:00,,0827.9,5.00,0.00,29.3,27.8,00.0,37.9,31.2,28.8,0000.0,0009.88,0027.69,0008.14
2022-07-12 21:23:00,,0827.9,5.00,0.00,29.3,28.0,00.0,38.0,31.3,28.9,0000.0,0009.74,0024.81,0008.08
2022-07-12 21:24:00,,0827.8,4.99,0.00,29.3,28.2,00.0,38.0,31.3,29.3,0000.0,0009.62,0023.50,0008.02
2022-07-12 21:25:00,,0827.8,5.01,0.00,29.4,28.2,00.0,38.0,31.4,29.3,0000.0,0009.60,0024.00,0007.99
2022-07-12 21:26:00,,0827.7,4.99,0.00,29.4,27.7,00.0,38.0,31.3,29.1,0000.0,0009.60,0024.72,0007.96
2022-07-12 21:27:00,,0827.7,5.01,0.00,29.3,27.2,00.0,37.9,31.2,28.9,0000.0,0009.58,0026.86,0007.94
2022-07-12 21:28:00,,0827.7,5.00,0.00,29.3,27.1,00.0,37.9,31.1,28.9,0000.0,0009.55,0027.60,0007.92
2022-07-12 21:29:00,,0827.7,5.00,0.00,29.2,27.2,00.0,37.9,31.0,27.9,0000.0,0009.54,0027.49,0007.86
2022-07-12 21:30:00,,0827.7,4.99,0.00,29.2,27.4,00.0,37.9,31.0,26.3,0000.0,0009.45,0027.92,0007.80
2022-07-12 21:31:00,,0827.7,5.00,0.00,29.2,27.6,00.0,38.0,31.1,25.9,0000.0,0009.29,0027.85,0007.71
2022-07-12 21:32:00,,0827.7,5.00,0.00,29.3,27.8,00.0,38.0,31.2,25.3,0000.0,0009.18,0027.51,0007.60
2022-07-12 21:33:00,,0827.7,4.99,0.00,29.3,28.0,00.0,38.0,31.2,26.2,0000.0,0009.12,0027.23,0007.51
2022-07-12 21:34:00,,0827.9,5.00,0.00,29.3,28.2,00.0,38.0,31.3,26.4,0000.0,0009.01,0026.27,0007.42
2022-07-12 21:35:00,,0827.9,4.99,0.00,29.4,28.0,00.0,38.0,31.3,24.8,0000.0,0008.94,0026.52,0007.32
2022-07-12 21:36:00,,0827.9,5.00,0.00,29.3,27.4,00.0,37.9,31.2,23.8,0000.0,0008.82,0026.82,0007.17
2022-07-12 21:37:00,,0827.9,5.00,0.00,29.3,27.1,00.0,37.9,31.1,23.0,0000.0,0008.64,0025.91,0007.02
2022-07-12 21:38:00,,0827.9,5.00,0.00,29.3,27.1,00.0,37.9,31.1,21.5,0000.0,0008.46,0024.46,0006.85
2022-07-12 21:39:00,,0827.9,4.99,0.00,29.2,27.3,00.0,37.9,31.0,21.2,0000.0,0008.23,0022.80,0006.68
2022-07-12 21:40:00,,0827.9,5.01,0.00,29.2,27.5,00.0,37.9,31.0,20.7,0000.0,0008.03,0021.29,0006.56
2022-07-12 21:41:00,,0828.0,5.01,0.00,29.2,27.7,00.0,37.9,31.1,21.2,0000.0,0007.91,0020.42,0006.48
2022-07-12 21:42:00,,0828.0,5.00,0.00,29.3,27.9,00.0,38.0,31.2,20.3,0000.0,0007.83,0019.96,0006.41
2022-07-12 21:43:00,,0828.0,5.00,0.00,29.3,28.1,00.0,38.0,31.2,20.6,0000.0,0007.67,0019.50,0006.32
2022-07-12 21:44:00,,0828.0,5.00,0.00,29.3,28.2,00.0,38.0,31.3,20.1,0000.0,0007.57,0019.30,0006.24
2022-07-12 21:45:00,,0828.0,5.00,0.00,29.4,28.1,00.0,38.0,31.4,19.7,0000.0,0007.47,0019.73,0006.14
2022-07-12 21:46:00,,0828.0,4.99,0.00,29.4,27.5,00.0,38.0,31.2,19.2,0000.0,0007.39,0019.67,0006.04
2022-07-12 21:47:00,,0828.1,5.00,0.00,29.3,27.1,00.0,37.9,31.1,19.1,0000.0,0007.29,0018.43,0005.97
2022-07-12 21:48:00,,0828.1,5.01,0.00,29.3,27.1,00.0,37.9,31.1,18.5,0000.0,0007.20,0019.03,0005.91
2022-07-12 21:49:00,,0828.0,4.99,0.00,29.2,27.3,00.0,38.0,31.0,18.5,0000.0,0007.13,0018.02,0005.85
2022-07-12 21:50:00,,0828.1,4.99,0.00,29.2,27.5,00.0,38.0,31.0,18.4,0000.0,0007.12,0017.62,0005.82
2022-07-12 21:51:00,,0828.1,5.01,0.00,29.3,27.7,00.0,38.0,31.1,18.6,0000.0,0007.10,0017.97,0005.80
2022-07-12 21:52:00,,0828.1,5.00,0.00,29.3,27.9,00.0,38.0,31.2,18.2,0000.0,0007.03,0018.26,0005.77
2022-07-12 21:53:00,,0828.2,5.00,0.00,29.3,28.0,00.0,38.0,31.3,18.0,0000.0,0007.02,0018.85,0005.74
2022-07-12 21:54:00,,0828.2,5.01,0.00,29.4,28.2,00.0,38.0,31.3,17.6,0000.0,0007.00,0018.64,0005.72
2022-07-12 21:55:00,,0828.2,4.99,0.00,29.4,28.2,00.0,38.0,31.4,17.7,0000.0,0006.92,0017.91,0005.70
2022-07-12 21:56:00,,0828.2,4.99,0.00,29.4,27.6,00.0,38.0,31.3,17.5,0000.0,0006.87,0017.89,0005.69
2022-07-12 21:57:00,,0828.2,5.00,0.00,29.3,27.1,00.0,37.9,31.2,17.2,0000.0,0006.86,0017.87,0005.69
2022-07-12 21:58:00,,0828.2,5.01,0.00,29.3,27.1,00.0,37.9,31.1,17.3,0000.0,0006.85,0018.30,0005.69
2022-07-12 21:59:00,,0828.2,5.00,0.00,29.3,27.2,00.0,37.9,31.0,17.5,0000.0,0006.85,0017.74,0005.70
